Weather History for KOSU - February, 2013

Change the Weather History Date:

Saturday, February 16, 2013

  Actual Average (KCMH) Record (KCMH)
Temperature  
Mean Temperature 21 °F 33 °F  
Max Temperature 28 °F 41 °F 72 °F (1883)
Min Temperature 14 °F 25 °F -5 °F (1904)
Degree Days  
Heating Degree Days 44 32  
Month to date heating degree days 538  
Since 1 July heating degree days 3630  
Cooling Degree Days 0 0  
Month to date cooling degree days 0  
Year to date cooling degree days 0  
Moisture  
Dew Point 17 °F    
Average Humidity 78    
Maximum Humidity 95    
Minimum Humidity 61    
Precipitation  
Precipitation 0.00 in 0.07 in 2.18 in (1891)
Month to date precipitation 1.30  
Year to date precipitation 4.03  
Snow  
Snow 0.00 in 0.20 in 8.90 in (2003)
Month to date snowfall 3.5  
Since 1 July snowfall 18.8  
Snow Depth -    
Sea Level Pressure  
Sea Level Pressure 30.04 in    
Wind  
Wind Speed 9 mph (WNW)    
Max Wind Speed 21 mph    
Max Gust Speed 29 mph    
Visibility 6 miles    
Events Snow    
T = Trace of Precipitation, MM = Missing Value Source: NWS Daily Summary

Daily Weather History Graph

Daily Weather History Graph

Search for Another Location

Airport or City:

Trip Planner

Search our weather history database for the weather conditions in past years. The results will help you decide how hot, cold, wet, or windy it might be!

Date:

Astronomy

Feb. 16, 2013 Rise Set
Actual Time 7:23 AM EST 6:09 PM EST
Civil Twilight 6:55 AM EST 6:37 PM EST
Nautical Twilight 6:24 AM EST 7:09 PM EST
Astronomical Twilight 5:52 AM EST 7:40 PM EST
Moon 10:35 AM EST (2/16) 12:08 AM EST (2/16)
Length of Visible Light 11h 41m
Length of Day
10h 45m
Waxing Crescent, 39% of the Moon is Illuminated
Feb 16
Waxing Crescent
Feb 17
First Quarter
Feb 25
Full
Mar 4
Last Quarter
Mar 11
New

Hourly Weather History & Observations

Time (EST) Temp. Windchill Dew Point Humidity Pressure Visibility Wind Dir Wind Speed Gust Speed Precip Events Conditions
12:11 AM 26.6 °F 19.1 °F 21.2 °F 80% 30.10 in 10.0 mi NW 6.9 mph - N/A   Overcast
12:27 AM 26.6 °F 16.8 °F 17.6 °F 69% 30.10 in 10.0 mi NW 10.4 mph - N/A   Overcast
12:53 AM 25.0 °F 14.2 °F 16.0 °F 69% 30.13 in 10.0 mi NW 11.5 mph - N/A   Mostly Cloudy
1:53 AM 21.9 °F 15.7 °F 15.1 °F 75% 30.13 in 10.0 mi NNW 4.6 mph - N/A   Clear
2:53 AM 19.9 °F 14.9 °F 15.1 °F 81% 30.11 in 10.0 mi NW 3.5 mph - N/A   Clear
3:53 AM 19.0 °F 11.1 °F 15.1 °F 85% 30.10 in 10.0 mi WNW 5.8 mph - N/A   Clear
4:53 AM 19.0 °F - 15.1 °F 85% 30.09 in 10.0 mi Calm Calm - N/A   Clear
5:53 AM 17.1 °F 11.7 °F 15.1 °F 92% 30.09 in 10.0 mi SW 3.5 mph - N/A   Clear
6:53 AM 14.0 °F 8.2 °F 12.9 °F 95% 30.09 in 10.0 mi West 3.5 mph - N/A   Clear
7:53 AM 17.1 °F 11.7 °F 15.1 °F 92% 30.08 in 9.0 mi West 3.5 mph - N/A   Clear
8:53 AM 21.9 °F - 18.0 °F 85% 30.09 in 10.0 mi Calm Calm - N/A   Clear
9:53 AM 26.1 °F 21.9 °F 18.0 °F 71% 30.07 in 10.0 mi SSW 3.5 mph - N/A   Overcast
10:53 AM 27.0 °F 23.0 °F 15.1 °F 61% 30.06 in 10.0 mi West 3.5 mph - N/A   Overcast
11:53 AM 28.0 °F 20.8 °F 18.0 °F 66% 30.05 in 10.0 mi SSW 6.9 mph - N/A   Overcast
12:46 PM 26.6 °F 14.3 °F 19.4 °F 74% 29.99 in 2.0 mi WSW 16.1 mph 19.6 mph 0.00 in Snow Light Snow
12:50 PM 26.6 °F 16.2 °F 21.2 °F 80% 30.00 in 0.8 mi SW 11.5 mph 19.6 mph 0.00 in Snow Light Snow
12:53 PM 26.1 °F 17.6 °F 21.9 °F 84% 30.03 in 0.8 mi SW 8.1 mph 19.6 mph 0.00 in Snow Light Snow
1:01 PM 26.6 °F 20.0 °F 23.0 °F 86% 29.99 in 2.0 mi WSW 5.8 mph - 0.00 in Snow Light Snow
1:10 PM 26.6 °F 22.6 °F 21.2 °F 80% 29.99 in 9.0 mi WNW 3.5 mph - 0.00 in   Overcast
1:23 PM 28.4 °F 19.7 °F 21.2 °F 74% 29.98 in 2.0 mi West 9.2 mph 16.1 mph 0.00 in Snow Light Snow
1:46 PM 26.6 °F 12.7 °F 19.4 °F 74% 29.97 in 5.0 mi West 20.7 mph 27.6 mph 0.00 in Snow Light Snow
1:53 PM 25.0 °F 12.2 °F 21.0 °F 85% 30.01 in 2.0 mi West 16.1 mph 27.6 mph 0.00 in Snow Light Snow
1:56 PM 24.8 °F 12.4 °F 21.2 °F 86% 29.97 in 0.8 mi WNW 15.0 mph 26.5 mph 0.00 in Snow Light Snow
2:06 PM 26.6 °F 15.2 °F 21.2 °F 80% 29.98 in 1.8 mi West 13.8 mph - 0.00 in Snow Light Snow
2:09 PM 26.6 °F 16.8 °F 21.2 °F 80% 29.98 in 3.0 mi WNW 10.4 mph - 0.00 in Snow Light Snow
2:53 PM 28.0 °F 16.1 °F 16.0 °F 61% 30.00 in 10.0 mi WNW 16.1 mph - 0.00 in   Mostly Cloudy
3:49 PM 24.8 °F 14.6 °F 19.4 °F 80% 29.98 in 0.8 mi WNW 10.4 mph 23.0 mph 0.00 in Snow Light Snow
3:53 PM 25.0 °F 14.2 °F 19.0 °F 78% 30.02 in 0.8 mi WNW 11.5 mph - 0.00 in Snow Light Snow
3:56 PM 24.8 °F 15.3 °F 17.6 °F 74% 29.98 in 1.0 mi West 9.2 mph - 0.00 in Snow Light Snow
4:02 PM 24.8 °F 13.4 °F 19.4 °F 80% 29.98 in 3.0 mi WNW 12.7 mph 18.4 mph 0.00 in Snow Light Snow
4:09 PM 24.8 °F 12.9 °F 19.4 °F 80% 29.98 in 1.8 mi WNW 13.8 mph - 0.00 in Snow Light Snow
4:18 PM 24.8 °F 13.4 °F 19.4 °F 80% 29.98 in 3.0 mi WNW 12.7 mph - 0.00 in Snow Light Snow
4:28 PM 24.8 °F 11.9 °F 17.6 °F 74% 29.98 in 10.0 mi WNW 16.1 mph - 0.00 in   Overcast
4:53 PM 25.0 °F 10.9 °F 17.1 °F 72% 30.03 in 9.0 mi WNW 19.6 mph 28.8 mph 0.00 in   Mostly Cloudy
5:53 PM 21.9 °F 8.2 °F 16.0 °F 78% 30.06 in 10.0 mi West 16.1 mph - 0.00 in   Scattered Clouds
6:45 PM 21.2 °F 8.9 °F 15.8 °F 80% 30.02 in 9.0 mi WNW 12.7 mph - 0.00 in Snow Light Snow
6:53 PM 19.9 °F 7.3 °F 15.1 °F 81% 30.07 in 7.0 mi WNW 12.7 mph - 0.00 in Snow Light Snow
7:19 PM 19.4 °F 6.6 °F 14.0 °F 80% 30.03 in 10.0 mi WNW 12.7 mph - 0.00 in   Partly Cloudy
7:53 PM 19.9 °F 9.3 °F 14.0 °F 78% 30.08 in 10.0 mi WNW 9.2 mph - 0.00 in   Mostly Cloudy
8:53 PM 19.9 °F 6.2 °F 14.0 °F 78% 30.08 in 10.0 mi NW 15.0 mph 21.9 mph 0.00 in   Overcast
9:04 PM 19.4 °F 6.6 °F 15.8 °F 86% 30.05 in 1.8 mi NW 12.7 mph - 0.00 in Snow Light Snow
9:09 PM 19.4 °F 5.5 °F 14.0 °F 80% 30.04 in 2.0 mi NW 15.0 mph - 0.00 in Snow Light Snow
9:19 PM 19.4 °F 6.0 °F 12.2 °F 74% 30.05 in 4.0 mi NW 13.8 mph 21.9 mph 0.00 in Snow Light Snow
9:53 PM 19.0 °F 3.6 °F 12.0 °F 74% 30.09 in 6.0 mi NW 18.4 mph 24.2 mph 0.00 in Snow Light Snow
10:05 PM 17.6 °F 4.3 °F 10.4 °F 73% 30.05 in 5.0 mi NW 12.7 mph 24.2 mph 0.00 in Snow Light Snow
10:24 PM 17.6 °F 4.3 °F 10.4 °F 73% 30.06 in 10.0 mi NW 12.7 mph - 0.00 in   Overcast
10:49 PM 17.6 °F 3.7 °F 10.4 °F 73% 30.06 in 4.0 mi NW 13.8 mph 25.3 mph 0.00 in Snow Light Snow
10:53 PM 17.1 °F 4.3 °F 10.9 °F 77% 30.10 in 3.0 mi NW 11.5 mph 25.3 mph 0.00 in Snow Light Snow
11:06 PM 17.6 °F 3.7 °F 10.4 °F 73% 30.06 in 6.0 mi WNW 13.8 mph - 0.00 in Snow Light Snow
11:53 PM 15.1 °F 3.3 °F 6.1 °F 68% 30.09 in 10.0 mi WNW 9.2 mph - 0.00 in   Clear